George, South Africa

12:38 AM SAST on March 30, 2017 (GMT +0200)
George

Weather History for FAGG - March, 2014

Change the Weather History Date:

Friday, March 28, 2014

  Actual Average Record
Temperature  
Mean Temperature 64 °F -  
Max Temperature 77 °F 70 °F 82 °F (2012)
Min Temperature 52 °F 53 °F 51 °F (2002)
Growing Degree Days 14 (Base 50)    
Moisture  
Dew Point 57 °F    
Average Humidity 70    
Maximum Humidity 90    
Minimum Humidity 43    
Precipitation  
Precipitation 0.00 in - - ()
Sea Level Pressure  
Sea Level Pressure 30.05 in    
Wind  
Wind Speed 4 mph ()    
Max Wind Speed 9 mph    
Max Gust Speed -    
Visibility 9.9 miles    
Events      
Averages and records for this station are not official NWS values.
T = Trace of Precipitation, MM = Missing Value Source: Averaged Metar Reports

Daily Weather History Graph

Daily Weather History Graph

Search for Another Location

Airport or City:

Trip Planner

Search our weather history database for the weather conditions in past years. The results will help you decide how hot, cold, wet, or windy it might be!

Date:

Astronomy

Mar. 28, 2014 Rise Set
Actual Time 6:39 AM SAST 6:31 PM SAST
Civil Twilight 6:14 AM SAST 6:55 PM SAST
Nautical Twilight 5:45 AM SAST 7:24 PM SAST
Astronomical Twilight 5:16 AM SAST 7:54 PM SAST
Moon 3:57 AM SAST (3/28) 4:54 PM SAST (3/28)
Length of Visible Light 12h 41m
Length of Day
11h 51m
Waning Crescent, 8% of the Moon is Illuminated
Mar 28
Waning Crescent
Mar 30
New
Apr 7
First Quarter
Apr 15
Full
Apr 22
Last Quarter

Hourly Weather History & Observations

Time (SAST) Temp. Dew Point Humidity Pressure Visibility Wind Dir Wind Speed Gust Speed Precip Events Conditions
2:00 AM 56 °F 54 °F 90% 30.15 in 6 mi NNE 3.5 mph - -  
5:00 AM 55 °F 52 °F 87% 30.12 in 12 mi North 2.3 mph - -  
5:00 AM 55.4 °F 51.8 °F 88% 30.09 in - North 2.3 mph - N/A   Clear
6:00 AM 55.4 °F 51.8 °F 88% 30.09 in - North 3.5 mph - N/A   Clear
7:00 AM 53.6 °F 50.0 °F 88% 30.09 in - SE 3.5 mph - N/A   Clear
8:00 AM 61 °F 56 °F 80% 30.12 in 12 mi South 2.3 mph - -   Clear
8:00 AM 60.8 °F 57.2 °F 88% 30.09 in - Variable 2.3 mph - N/A   Clear
9:00 AM 64.4 °F 59.0 °F 83% 30.12 in - SSE 5.8 mph - N/A   Clear
10:00 AM 69.8 °F 59.0 °F 68% 30.12 in - East 3.5 mph - N/A   Clear
11:00 AM 72 °F 61 °F 60% 30.11 in 12 mi SE 4.6 mph - -   Clear
11:00 AM 73.4 °F 60.8 °F 65% 30.09 in - SE 4.6 mph - N/A   Clear
12:00 PM 73.4 °F 59.0 °F 61% 30.06 in - SE 6.9 mph - N/A   Clear
1:00 PM 75.2 °F 59.0 °F 57% 30.04 in - ESE 4.6 mph - N/A   Clear
2:00 PM 76 °F 59 °F 45% 30.02 in 12 mi SSE 9.2 mph - -   Scattered Clouds
2:00 PM 75.2 °F 59.0 °F 57% 30.01 in 6.2 mi SSE 9.2 mph - N/A   Partly Cloudy
3:00 PM 77.0 °F 59.0 °F 54% 30.01 in 5.0 mi SE 8.1 mph - N/A   Smoke
4:00 PM 75.2 °F 55.4 °F 50% 29.98 in - ESE 8.1 mph - N/A   Clear
5:00 PM 73 °F 55 °F 43% 29.99 in 12 mi ESE 8.1 mph - -   Clear
5:00 PM 73.4 °F 55.4 °F 53% 29.98 in - ESE 8.1 mph - N/A   Clear
6:00 PM 69.8 °F 55.4 °F 60% 29.98 in - East 6.9 mph - N/A   Clear
7:00 PM 66.2 °F 55.4 °F 68% 29.98 in - East 8.1 mph - N/A   Clear
8:00 PM 65 °F 58 °F 70% 29.99 in 12 mi NNE 3.5 mph - -   Clear
8:00 PM 64.4 °F 57.2 °F 77% 29.98 in - NNE 3.5 mph - N/A   Clear
9:00 PM 64.4 °F 59.0 °F 83% 29.98 in - North 3.5 mph - N/A   Clear
11:00 PM 60.8 °F 55.4 °F 82% 29.98 in - NNW 3.5 mph - N/A   Clear